EWG59MG LIEO-EDDS

Flight info

Callsign EWG59MG
Flight time 1h 12m
Altitude 36000
Route OKIVA P980 DIKEL DCT RATAP DCT MEGER DCT OLETI DCT DESIP DCT PEPAG DCT ABESI N851 HEUSE Y715 ARSUT T125 REUTL REUTL1W
Aircraft A319/M-SDE3FGHIRWY/LB1

Departure

Time 2026-05-06 15:44
Airport Olbia Costa Smeralda Airport (LIEO)

Arrival

Time 2026-05-06 16:56
Airport Stuttgart Airport (EDDS)
Time Latitude Longitude Altitude Speed Heading
2026-05-06 15:07 40.90203 9.51572 34 ft 0 kts 324°
2026-05-06 15:35 40.90190 9.51584 34 ft 4 kts 331°
2026-05-06 15:35 40.90165 9.51597 32 ft 4 kts 352°
2026-05-06 15:35 40.90140 9.51596 31 ft 4 kts 30°
2026-05-06 15:35 40.90129 9.51585 32 ft 0 kts 55°
2026-05-06 15:38 40.90131 9.51589 30 ft 2 kts 56°
2026-05-06 15:38 40.90146 9.51616 32 ft 7 kts 55°
2026-05-06 15:39 40.90189 9.51698 34 ft 14 kts 55°
2026-05-06 15:39 40.90213 9.51789 33 ft 10 kts 124°
2026-05-06 15:39 40.90172 9.51875 34 ft 12 kts 140°
2026-05-06 15:39 40.90101 9.51821 34 ft 14 kts 235°
2026-05-06 15:40 40.90040 9.51704 34 ft 17 kts 235°
2026-05-06 15:40 40.89969 9.51568 34 ft 19 kts 235°
2026-05-06 15:40 40.89888 9.51413 34 ft 22 kts 235°
2026-05-06 15:40 40.89797 9.51239 34 ft 24 kts 235°
2026-05-06 15:41 40.89731 9.51114 33 ft 26 kts 235°
2026-05-06 15:41 40.89625 9.50910 34 ft 27 kts 236°
2026-05-06 15:41 40.89539 9.50747 34 ft 18 kts 234°
2026-05-06 15:41 40.89470 9.50619 33 ft 18 kts 235°
2026-05-06 15:42 40.89403 9.50488 34 ft 14 kts 236°
2026-05-06 15:42 40.89317 9.50440 34 ft 15 kts 165°
2026-05-06 15:42 40.89266 9.50554 35 ft 7 kts 118°
2026-05-06 15:42 40.89259 9.50603 35 ft 5 kts 55°
2026-05-06 15:43 40.89260 9.50605 35 ft 0 kts 55°
2026-05-06 15:43 40.89263 9.50610 35 ft 2 kts 55°
2026-05-06 15:43 40.89326 9.50729 34 ft 45 kts 55°
2026-05-06 15:43 40.89639 9.51329 35 ft 111 kts 55°
2026-05-06 15:44 40.90172 9.52351 237 ft 144 kts 56°
2026-05-06 15:44 40.90719 9.53443 912 ft 141 kts 57°
2026-05-06 15:44 40.91289 9.54541 1383 ft 154 kts 57°
2026-05-06 15:44 40.91948 9.55788 1740 ft 175 kts 57°
2026-05-06 15:45 40.92687 9.57156 2173 ft 192 kts 56°
2026-05-06 15:45 40.93506 9.58685 2521 ft 214 kts 56°
2026-05-06 15:45 40.94361 9.60286 3259 ft 214 kts 54°
2026-05-06 15:45 40.95252 9.61954 3742 ft 233 kts 55°
2026-05-06 15:46 40.96212 9.63750 4530 ft 242 kts 54°
2026-05-06 15:46 40.97407 9.65346 5410 ft 248 kts 32°
2026-05-06 15:46 40.99028 9.66134 6318 ft 252 kts
2026-05-06 15:46 41.00762 9.65916 7179 ft 253 kts 338°
2026-05-06 15:47 41.02279 9.64786 8131 ft 251 kts 321°
2026-05-06 15:47 41.03781 9.63407 8688 ft 274 kts 322°
2026-05-06 15:47 41.05392 9.61939 9408 ft 286 kts 322°
2026-05-06 15:47 41.07050 9.60429 10163 ft 296 kts 320°
2026-05-06 15:48 41.08611 9.58515 10490 ft 317 kts 308°
2026-05-06 15:48 41.09975 9.56094 10764 ft 338 kts 303°
2026-05-06 15:48 41.11367 9.53525 11335 ft 347 kts 303°
2026-05-06 15:48 41.12789 9.50902 12058 ft 352 kts 303°
2026-05-06 15:49 41.14213 9.48288 12756 ft 357 kts 303°
2026-05-06 15:49 41.15679 9.45601 13500 ft 361 kts 303°
2026-05-06 15:49 41.17149 9.42904 14275 ft 362 kts 302°
2026-05-06 15:49 41.18634 9.40178 14929 ft 366 kts 302°
2026-05-06 15:50 41.20136 9.37416 15574 ft 371 kts 301°
2026-05-06 15:50 41.21653 9.34622 16210 ft 376 kts 301°
2026-05-06 15:50 41.23172 9.31781 16843 ft 380 kts 299°
2026-05-06 15:50 41.24651 9.28843 17489 ft 384 kts 297°
2026-05-06 15:51 41.26100 9.25835 18134 ft 389 kts 296°
2026-05-06 15:51 41.27542 9.22777 18714 ft 393 kts 296°
2026-05-06 15:51 41.28998 9.19684 19338 ft 395 kts 296°
2026-05-06 15:51 41.30599 9.16668 19965 ft 404 kts 305°
2026-05-06 15:52 41.32693 9.14103 20588 ft 417 kts 318°
2026-05-06 15:52 41.35257 9.12191 21182 ft 429 kts 332°
2026-05-06 15:52 41.38161 9.11096 21746 ft 441 kts 346°
2026-05-06 15:52 41.41255 9.10901 22294 ft 450 kts 357°
2026-05-06 15:53 41.44400 9.11017 22850 ft 453 kts 357°
2026-05-06 15:53 41.47557 9.11129 23355 ft 456 kts 356°
2026-05-06 15:53 41.50737 9.11235 23805 ft 459 kts 356°
2026-05-06 15:53 41.53948 9.11338 24222 ft 462 kts 356°
2026-05-06 15:54 41.57166 9.11418 24641 ft 464 kts 355°
2026-05-06 15:54 41.60407 9.11429 25063 ft 466 kts 355°
2026-05-06 15:54 41.63655 9.11393 25500 ft 469 kts 354°
2026-05-06 15:54 41.66926 9.11334 25882 ft 473 kts 354°
2026-05-06 15:55 41.70223 9.11270 26283 ft 476 kts 354°
2026-05-06 15:55 41.73546 9.11216 26696 ft 478 kts 354°
2026-05-06 15:55 41.76882 9.11178 27106 ft 481 kts 354°
2026-05-06 15:55 41.80241 9.11152 27518 ft 483 kts 354°
2026-05-06 15:56 41.83609 9.11132 27959 ft 486 kts 354°
2026-05-06 15:56 41.87004 9.11112 28315 ft 489 kts 354°
2026-05-06 15:56 41.90415 9.11091 28634 ft 491 kts 354°
2026-05-06 15:56 41.93838 9.11065 28959 ft 493 kts 354°
2026-05-06 15:57 41.97278 9.11036 29329 ft 496 kts 354°
2026-05-06 15:57 42.00733 9.11009 29702 ft 498 kts 354°
2026-05-06 15:57 42.04214 9.10983 30052 ft 500 kts 354°
2026-05-06 15:57 42.07698 9.10959 30416 ft 501 kts 354°
2026-05-06 15:58 42.11190 9.10934 30819 ft 501 kts 354°
2026-05-06 15:58 42.14633 9.10909 31166 ft 502 kts 354°
2026-05-06 15:58 42.18129 9.10884 31462 ft 503 kts 354°
2026-05-06 15:58 42.21636 9.10858 31858 ft 503 kts 354°
2026-05-06 15:59 42.25130 9.10832 32318 ft 502 kts 354°
2026-05-06 15:59 42.28621 9.10805 32770 ft 502 kts 354°
2026-05-06 15:59 42.32122 9.10777 33209 ft 502 kts 354°
2026-05-06 15:59 42.35613 9.10749 33620 ft 502 kts 354°
2026-05-06 16:00 42.39112 9.10723 34045 ft 502 kts 354°
2026-05-06 16:00 42.42595 9.10699 34459 ft 500 kts 354°
2026-05-06 16:00 42.46079 9.10677 34860 ft 500 kts 354°
2026-05-06 16:00 42.49546 9.10648 35317 ft 498 kts 354°
2026-05-06 16:01 42.53006 9.10619 35771 ft 496 kts 354°
2026-05-06 16:01 42.56450 9.10592 35907 ft 494 kts 354°
2026-05-06 16:01 42.63286 9.10537 35931 ft 489 kts 353°
2026-05-06 16:02 42.70094 9.10470 35926 ft 489 kts 353°
2026-05-06 16:02 42.76925 9.10976 35925 ft 493 kts 359°
2026-05-06 16:03 42.83769 9.11782 35923 ft 493 kts 359°
2026-05-06 16:03 42.90609 9.12585 35942 ft 493 kts 359°
2026-05-06 16:04 42.97454 9.13387 35931 ft 493 kts 359°
2026-05-06 16:04 43.04289 9.14189 35926 ft 493 kts 359°
2026-05-06 16:05 43.11076 9.14990 35925 ft 493 kts 359°
2026-05-06 16:05 43.17912 9.15791 35916 ft 493 kts 359°
2026-05-06 16:06 43.24748 9.16595 35909 ft 493 kts 359°
2026-05-06 16:06 43.31578 9.17226 35914 ft 488 kts 352°
2026-05-06 16:07 43.38172 9.15869 35902 ft 474 kts 338°
2026-05-06 16:07 43.44568 9.13617 35894 ft 475 kts 338°
2026-05-06 16:08 43.50878 9.11078 35894 ft 472 kts 334°
2026-05-06 16:08 43.57116 9.08184 35893 ft 473 kts 334°
2026-05-06 16:09 43.63358 9.05274 35880 ft 474 kts 334°
2026-05-06 16:09 43.69572 9.02373 35902 ft 474 kts 334°
2026-05-06 16:10 43.75827 8.99465 35886 ft 475 kts 334°
2026-05-06 16:10 43.82095 8.96548 35880 ft 475 kts 334°
2026-05-06 16:11 43.88634 8.94723 35908 ft 494 kts 355°
2026-05-06 16:11 43.95509 8.95008 35899 ft 494 kts 356°
2026-05-06 16:12 44.02377 8.95368 35888 ft 494 kts 356°
2026-05-06 16:12 44.09240 8.95702 35899 ft 493 kts 356°
2026-05-06 16:13 44.16097 8.96004 35892 ft 493 kts 356°
2026-05-06 16:13 44.22947 8.96303 35886 ft 492 kts 356°
2026-05-06 16:14 44.29796 8.96623 35903 ft 492 kts 356°
2026-05-06 16:14 44.36647 8.96952 35898 ft 492 kts 356°
2026-05-06 16:15 44.43489 8.97279 35892 ft 492 kts 356°
2026-05-06 16:15 44.50343 8.97597 35888 ft 493 kts 356°
2026-05-06 16:16 44.57197 8.97923 35876 ft 493 kts 356°
2026-05-06 16:16 44.64051 8.98241 35866 ft 493 kts 356°
2026-05-06 16:17 44.70913 8.98560 35847 ft 494 kts 356°
2026-05-06 16:17 44.77782 8.98893 35823 ft 494 kts 356°
2026-05-06 16:18 44.84653 8.99217 35830 ft 494 kts 356°
2026-05-06 16:18 44.91517 8.99541 35812 ft 494 kts 356°
2026-05-06 16:19 44.98402 8.99871 35802 ft 494 kts 356°
2026-05-06 16:19 45.05282 9.00188 35824 ft 495 kts 356°
2026-05-06 16:20 45.12162 9.00517 35799 ft 495 kts 356°
2026-05-06 16:20 45.19058 9.00858 35797 ft 496 kts 356°
2026-05-06 16:21 45.25918 9.01185 35801 ft 496 kts 356°
2026-05-06 16:21 45.32825 9.01515 35803 ft 497 kts 356°
2026-05-06 16:22 45.39734 9.01856 35812 ft 497 kts 356°
2026-05-06 16:22 45.46642 9.02195 35827 ft 496 kts 356°
2026-05-06 16:23 45.53549 9.02532 35819 ft 497 kts 356°
2026-05-06 16:23 45.59339 9.02817 35832 ft 497 kts 356°
2026-05-06 16:24 45.66205 9.03142 35850 ft 497 kts 356°
2026-05-06 16:24 45.73119 9.03419 35878 ft 496 kts 356°
2026-05-06 16:25 45.80008 9.03664 35877 ft 495 kts 356°
2026-05-06 16:25 45.86901 9.03903 35891 ft 495 kts 356°
2026-05-06 16:26 45.93801 9.04163 35875 ft 495 kts 356°
2026-05-06 16:26 46.00682 9.04413 35871 ft 495 kts 356°
2026-05-06 16:27 46.07556 9.04432 35877 ft 493 kts 354°
2026-05-06 16:27 46.14414 9.04313 35894 ft 493 kts 354°
2026-05-06 16:28 46.21209 9.03562 35894 ft 489 kts 349°
2026-05-06 16:28 46.27986 9.02666 35901 ft 489 kts 349°
2026-05-06 16:29 46.34806 9.02393 35898 ft 495 kts 359°
2026-05-06 16:29 46.41674 9.03066 35900 ft 494 kts 359°
2026-05-06 16:30 46.47384 9.03537 35901 ft 494 kts 358°
2026-05-06 16:30 46.55420 9.04011 35898 ft 494 kts 358°
2026-05-06 16:31 46.62288 9.04443 35759 ft 494 kts 359°
2026-05-06 16:31 46.65703 9.04682 35909 ft 489 kts 359°
2026-05-06 16:31 46.69097 9.04925 35923 ft 489 kts 359°
2026-05-06 16:32 46.75886 9.05404 35928 ft 487 kts 359°
2026-05-06 16:32 46.82645 9.05863 35935 ft 485 kts 360°
2026-05-06 16:33 46.89384 9.06330 35917 ft 485 kts 360°
2026-05-06 16:34 46.99482 9.07041 35904 ft 484 kts 360°
2026-05-06 16:34 47.06208 9.07508 35904 ft 484 kts 360°
2026-05-06 16:35 47.12935 9.07970 35924 ft 483 kts
2026-05-06 16:35 47.19642 9.08434 35622 ft 481 kts
2026-05-06 16:35 47.22944 9.08659 35016 ft 482 kts
2026-05-06 16:36 47.26301 9.08888 34325 ft 484 kts
2026-05-06 16:36 47.29682 9.09122 33524 ft 487 kts
2026-05-06 16:36 47.33070 9.09359 32681 ft 489 kts
2026-05-06 16:36 47.36476 9.09598 31826 ft 490 kts
2026-05-06 16:37 47.39887 9.09841 30941 ft 492 kts
2026-05-06 16:37 47.43359 9.10090 30053 ft 493 kts
2026-05-06 16:37 47.46743 9.10334 29009 ft 495 kts
2026-05-06 16:37 47.50192 9.10580 27927 ft 496 kts
2026-05-06 16:38 47.53638 9.10821 26930 ft 495 kts
2026-05-06 16:38 47.57063 9.11058 26250 ft 490 kts
2026-05-06 16:38 47.60449 9.11292 25625 ft 485 kts
2026-05-06 16:38 47.63813 9.11525 25008 ft 481 kts
2026-05-06 16:39 47.67131 9.11760 24408 ft 475 kts
2026-05-06 16:39 47.70407 9.11995 23816 ft 469 kts
2026-05-06 16:39 47.73653 9.12179 23201 ft 464 kts
2026-05-06 16:39 47.76861 9.12240 22531 ft 459 kts 360°
2026-05-06 16:40 47.80040 9.12357 21858 ft 455 kts
2026-05-06 16:40 47.83179 9.12750 21206 ft 450 kts
2026-05-06 16:40 47.86281 9.13190 20566 ft 446 kts
2026-05-06 16:40 47.89349 9.13684 19944 ft 440 kts
2026-05-06 16:41 47.92349 9.14434 19323 ft 436 kts 16°
2026-05-06 16:41 47.95230 9.15801 18727 ft 432 kts 18°
2026-05-06 16:41 47.98086 9.17183 18134 ft 429 kts 18°
2026-05-06 16:41 48.00912 9.18553 17467 ft 426 kts 18°
2026-05-06 16:42 48.03724 9.19919 16801 ft 422 kts 18°
2026-05-06 16:42 48.06504 9.21268 16157 ft 419 kts 18°
2026-05-06 16:42 48.09265 9.22608 15529 ft 414 kts 18°
2026-05-06 16:42 48.11988 9.23932 14910 ft 410 kts 18°
2026-05-06 16:43 48.14685 9.25247 14299 ft 406 kts 18°
2026-05-06 16:43 48.17364 9.26554 13693 ft 403 kts 18°
2026-05-06 16:43 48.20057 9.27567 13043 ft 397 kts
2026-05-06 16:43 48.22807 9.27951 12511 ft 394 kts
2026-05-06 16:44 48.25526 9.28310 12005 ft 391 kts
2026-05-06 16:44 48.28217 9.28667 11493 ft 387 kts
2026-05-06 16:44 48.30856 9.28992 11174 ft 373 kts
2026-05-06 16:44 48.33389 9.29298 10925 ft 357 kts
2026-05-06 16:45 48.35818 9.29591 10678 ft 344 kts
2026-05-06 16:45 48.38168 9.29874 10425 ft 333 kts
2026-05-06 16:45 48.40441 9.30147 10185 ft 323 kts
2026-05-06 16:45 48.42641 9.30409 10044 ft 312 kts
2026-05-06 16:46 48.44775 9.30663 9844 ft 304 kts
2026-05-06 16:46 48.46882 9.30915 9424 ft 304 kts
2026-05-06 16:46 48.48985 9.31165 9004 ft 303 kts
2026-05-06 16:46 48.51084 9.31414 8580 ft 301 kts
2026-05-06 16:47 48.53097 9.32187 8169 ft 300 kts 27°
2026-05-06 16:47 48.54694 9.34156 7844 ft 296 kts 50°
2026-05-06 16:47 48.55966 9.36582 7550 ft 295 kts 54°
2026-05-06 16:47 48.57189 9.39013 7254 ft 294 kts 54°
2026-05-06 16:48 48.58421 9.41463 6949 ft 292 kts 54°
2026-05-06 16:48 48.59659 9.43930 6644 ft 289 kts 54°
2026-05-06 16:48 48.60846 9.46307 6357 ft 285 kts 54°
2026-05-06 16:48 48.62036 9.48683 6007 ft 282 kts 54°
2026-05-06 16:49 48.63207 9.51028 5650 ft 279 kts 54°
2026-05-06 16:49 48.64370 9.53365 5297 ft 276 kts 54°
2026-05-06 16:49 48.65526 9.55683 5001 ft 275 kts 54°
2026-05-06 16:49 48.66894 9.57677 4752 ft 274 kts 31°
2026-05-06 16:50 48.68697 9.58511 4496 ft 273 kts
2026-05-06 16:50 48.70558 9.58123 4243 ft 269 kts 345°
2026-05-06 16:50 48.72350 9.57417 4050 ft 262 kts 343°
2026-05-06 16:50 48.73428 9.56685 4004 ft 252 kts 324°
2026-05-06 16:51 48.74646 9.53925 4017 ft 235 kts 278°
2026-05-06 16:51 48.74505 9.51494 4019 ft 232 kts 253°
2026-05-06 16:51 48.74069 9.49203 4002 ft 220 kts 252°
2026-05-06 16:51 48.73657 9.47039 4011 ft 208 kts 252°
2026-05-06 16:52 48.73273 9.44989 3901 ft 202 kts 253°
2026-05-06 16:52 48.72891 9.42948 3718 ft 197 kts 253°
2026-05-06 16:52 48.72523 9.40978 3431 ft 191 kts 254°
2026-05-06 16:52 48.72178 9.39093 3218 ft 182 kts 254°
2026-05-06 16:53 48.71849 9.37287 3015 ft 173 kts 255°
2026-05-06 16:53 48.71527 9.35590 2757 ft 163 kts 253°
2026-05-06 16:53 48.71215 9.33996 2499 ft 153 kts 253°
2026-05-06 16:53 48.70936 9.32511 2314 ft 141 kts 254°
2026-05-06 16:54 48.70666 9.31065 2150 ft 144 kts 254°
2026-05-06 16:54 48.70396 9.29628 1958 ft 143 kts 253°
2026-05-06 16:54 48.70129 9.28213 1759 ft 137 kts 253°
2026-05-06 16:54 48.69870 9.26839 1586 ft 134 kts 253°
2026-05-06 16:55 48.69612 9.25481 1396 ft 134 kts 252°
2026-05-06 16:55 48.69355 9.24132 1210 ft 132 kts 252°
2026-05-06 16:55 48.69128 9.22936 1218 ft 104 kts 254°
2026-05-06 16:55 48.68957 9.22042 1251 ft 75 kts 254°
2026-05-06 16:56 48.68834 9.21387 1256 ft 55 kts 254°
2026-05-06 16:56 48.68742 9.20905 1268 ft 41 kts 254°
2026-05-06 16:56 48.68680 9.20551 1272 ft 33 kts 259°
2026-05-06 16:56 48.68695 9.20234 1281 ft 17 kts 283°
2026-05-06 16:57 48.68708 9.20153 1286 ft 6 kts 284°
2026-05-06 16:57 48.68719 9.20097 1287 ft 5 kts 288°
2026-05-06 16:57 48.68731 9.20058 1289 ft 4 kts 300°
2026-05-06 16:57 48.68748 9.20024 1291 ft 6 kts 306°
2026-05-06 16:58 48.68765 9.19933 1294 ft 13 kts 272°
2026-05-06 16:58 48.68744 9.19778 1299 ft 16 kts 253°
2026-05-06 16:58 48.68712 9.19608 1303 ft 17 kts 254°
2026-05-06 16:58 48.68678 9.19430 1308 ft 18 kts 254°
2026-05-06 16:59 48.68645 9.19257 1313 ft 16 kts 255°
2026-05-06 16:59 48.68692 9.19155 1317 ft 12 kts 341°
2026-05-06 16:59 48.68763 9.19165 1317 ft 11 kts 47°
2026-05-06 16:59 48.68789 9.19289 1315 ft 14 kts 74°
2026-05-06 17:00 48.68815 9.19385 1314 ft 6 kts 28°
2026-05-06 17:00 48.68847 9.19375 1315 ft 3 kts 343°
2026-05-06 17:00 48.68865 9.19367 1315 ft 2 kts 343°
2026-05-06 17:00 48.68878 9.19362 1315 ft 2 kts 344°
2026-05-06 17:01 48.68885 9.19358 1315 ft 0 kts 344°